Location: �terpigny
(49.8910°N, 2.9249°E)
Time: 19:26:24
(UTC+00:00)

Cosmos 2251 Rocket - Pass Details

Date: 24 October 2021
Orbit: 765 x 791 km, 74.0° (Epoch: 07 December)

Event Time Altitude Azimuth Distance (km) Brightness Sun altitude
Rises 18:09:30 0° 336° (NNW) 3,255 7.1 -15.1°
Reaches altitude 10° 18:11:54 10° 338° (NNW) 2,321 6.3 -15.5°
Maximum altitude 18:17:10 78° 66° (ENE) 789 3.4 -16.3°
Drops below altitude 10° 18:22:24 10° 152° (SSE) 2,298 5.7 -17.2°
Enters shadow 18:23:32 - 153° (SSE) 2,745 6.1 -17.4°
